User: anonymous   Login
Location: Newark
(27.9675°N, 86.8869°E)
Time: 17:38:55
(UTC+00:00)
Language:

ISS - Orbit

View from above orbital plane
View from above orbital plane
View from above satellite
View from above satellite

Ground track
Ground track

The orbit data is extracted from the following two-line orbital elements,

1 25544U 98067A   19297.51488809  .00016717  00000-0  10270-3 0  9031
2 25544  51.6405  80.0045 0006909 183.9498 176.1599 15.50229504 35319
Epoch (UTC): 24 October 2019 12:21:26
Eccentricity: 0.0006909
inclination: 51.6405°
perigee height: 411 km
apogee height: 421 km
right ascension of ascending node: 80.0045°
argument of perigee: 183.9498°
revolutions per day: 15.50229504
mean anomaly at epoch: 176.1599°
orbit number at epoch: 3531

The dashed part of the orbit path shows where the satellite is in the earth's shadow,  

DLR